Flag for Germany Weather past 2 weeks in Calw, Baden-Württemberg, Germany

Now
60 °F

Overcast.


Feels Like: 60 °F
Forecast: 52 / 66 °F
Wind: 3 mph from West

Location: Stuttgart-Echterdingen

Current Time: May 28, 2015 at 12:48:25 PM

Latest Report: May 28, 2015 at 12:00 PM


Visibility: 19 mi

Pressure: 30.06 "Hg

Humidity: 49%

Dew point: 41 °F

Location of CalwLocation

Historic Weather in Calw — Graph

°F

Calw temperature yesterday

Maximum temperature yesterday: 58 °F (at 6:00 PM)
Minimum temperature yesterday: 47 °F (at 6:00 AM)
Average temperature yesterday: 52 °F

Past Weeks' High & Low Weather Summary

 TemperatureHumidityPressure
High73 °F (May 18, 6:00 PM)98% (May 16, 7:00 AM)30.36 "Hg (May 16, 7:00 AM)
Low37 °F (May 22, 6:00 AM)27% (May 22, 4:00 PM)29.71 "Hg (May 18, 7:00 PM)
Average56 °F68%30.06 "Hg
* Reported May 13 12:00 Noon — May 28 12:00 Noon, Calw, Weather by CustomWeather, © 2015

Note: Actual official high and low records may vary slightly from our data, if they occured in-between our weather recording intervals... More about our weather records

Advertising

Calw weather history for previous 24 hours

 ConditionsComfort  
Time TempWeatherWind HumidityBarometerVisibility
12:00 PM
Thu, May 28
60 °FOvercast.3 mph49%30.06 "Hg19 mi
10:00 AM56 °FPartly sunny.1 mph64%30.10 "Hg12 mi
9:00 AM51 °FOvercast.1 mph74%30.12 "Hg12 mi
8:00 AM46 °FOvercast.1 mph91%30.14 "Hg9 mi
7:00 AM41 °FPartly sunny.1 mph96%30.14 "Hg9 mi
6:00 AM39 °FScattered clouds.1 mph94%30.15 "Hg16 mi
4:00 AM41 °FClear.1 mph91%30.17 "Hg16 mi
3:00 AM42 °FClear.1 mph88%30.18 "Hg16 mi
2:00 AM43 °FClear.1 mph87%30.18 "Hg47 mi
1:00 AM45 °FPassing clouds.1 mph81%30.20 "Hg22 mi
12:00 AM48 °FPassing clouds.1 mph73%30.20 "Hg22 mi
10:00 PM
Wed, May 27
52 °FPassing clouds.2 mph62%30.21 "Hg28 mi
9:00 PM53 °FPartly sunny.3 mph61%30.19 "Hg28 mi
8:00 PM56 °FPartly sunny.2 mph52%30.19 "Hg28 mi
7:00 PM57 °FScattered clouds.3 mph50%30.19 "Hg28 mi
6:00 PM58 °FPartly sunny.3 mph49%30.20 "Hg25 mi
4:00 PM57 °FScattered clouds.5 mph55%30.21 "Hg25 mi
3:00 PM56 °FOvercast.3 mph50%30.22 "Hg25 mi
2:00 PM56 °FOvercast.2 mph50%30.24 "Hg25 mi
1:00 PM54 °FOvercast.3 mph58%30.24 "Hg25 mi
12:00 PM53 °FOvercast.3 mph62%30.25 "Hg25 mi
Weather by CustomWeather, © 2015

See weather overviewHow to use our weather pages